Regional Weather Roundup
Issued by NWS

Home | Current Version | Previous Version | Text Only | Print | Product List | Glossary Off
Versions: 1 2 3 4 5 6 7 8 9 10 11 12 13 14 15 16 17 18 19 20 21 22 23 24 25 26 27 28 29 30 31 32 33 34 35 36 37 38 39 40 41 42 43 44 45 46 47 48 49 50

000
ASUS43 KFSD 220102
RWRSD

WEATHER ROUNDUP FOR SOUTH DAKOTA
NATIONAL WEATHER SERVICE SIOUX FALLS SD
800 PM CDT MON JUL 21 2014

NOTE: "FAIR" INDICATES FEW OR NO CLOUDS BELOW 12,000 FEET WITH NO
SIGNIFICANT WEATHER AND/OR OBSTRUCTIONS TO VISIBILITY.


SDZ001>005-009-010-012>017-220200-
NORTHWEST AND NORTH CENTRAL SOUTH DAKOTA

CITY           SKY/WX    TMP DP  RH WIND       PRES   REMARKS
BUFFALO          N/A     82  60  47 N21       29.86R
FAITH            N/A     86  67  52 N17       29.84R
MOBRIDGE       MOSUNNY   80  60  50 NW16G23   29.77R
$$

SDZ012>016-024>037-041>051-057-063-072>074-220200-
SOUTHWEST AND SOUTH CENTRAL SOUTH DAKOTA

CITY           SKY/WX    TMP DP  RH WIND       PRES   REMARKS
RAPID CTY ARPT MOSUNNY   83  57  41 N12       29.88R
PIERRE         SUNNY     95  59  30 NW14      29.75R
CUSTER         SUNNY     83  40  21 W5        30.08R
ELLSWORTH AFB  PTSUNNY   91  52  26 N15       29.90R
PHILIP         SUNNY     96  54  24 N10       29.79R
PINE RIDGE     SUNNY     92  55  28 SW6       29.89R
WINNER         FAIR      99  56  23 W6        29.78R HX  97
$$

SDZ004>011-016>023-039-040-220200-
NORTHEAST SOUTH DAKOTA

CITY           SKY/WX    TMP DP  RH WIND       PRES   REMARKS
ABERDEEN       MOSUNNY   85  78  80 S12       29.67S HX  96
WATERTOWN      CLEAR     82  76  81 S15       29.75S
SISSETON         N/A     84  77  79 S15       29.68F
$$

SDZ017-020-022-023-036>040-048>070-220200-
SOUTHEAST SOUTH DAKOTA

CITY           SKY/WX    TMP DP  RH WIND       PRES   REMARKS
SIOUX FALLS    PTCLDY    86  78  77 S16       29.78S HX  98
HURON          SUNNY     90  78  68 S10       29.70R HX 104
CHAMBERLAIN    SUNNY     96  58  28 NW8       29.75R HX  95
MITCHELL       SUNNY     92  79  65 S12       29.72R HX 108
YANKTON        PTCLDY    90  81  74 S9        29.76S HX 108
$$

ABBREVIATIONS USED IN REMARKS
   TC - TEMPERATURE IN CELSIUS
  WCI - WIND CHILL INDEX
   HX - HEAT INDEX
  VSB - VISIBILITY



USA.gov is the U.S. government's official web portal to all federal, state and local government web resources and services.